QPF
0.00 0.00 0.00 0.00 0.00 0.00 0.00 0.00 0.00 0.00 0.00 0.00 0.00 0.00 0.00 0.00 0.00 0.00 0.00 0.00 0.00 0.00 0.00 0.00 0.00 0.00 0.00 0.00 0.00 0.00 0.00 0.00 0.00 0.00 0.00 0.00 0.00 0.00 0.00 0.00 0.01 0.02 0.01
0.00 0.00 0.00 0.00 0.00 0.00 0.00 0.00 0.00 0.00 0.00 0.00 0.00 0.00 0.00 0.00 0.00 0.00 0.00 0.00 0.00 0.00 0.00 0.00 0.00 0.00 0.00 0.00 0.00 0.00 0.00 0.00 0.00 0.00 0.00 0.00 0.00 0.00 0.00 0.00 0.01 0.01 0.00
0.00 0.00 0.00 0.00 0.00 0.00 0.00 0.00 0.00 0.00 0.00 0.00 0.00 0.00 0.00 0.00 0.00 0.00 0.00 0.00 0.00 0.00 0.00 0.00 0.00 0.00 0.00 0.00 0.00 0.00 0.00 0.00 0.00 0.00 0.00 0.00 0.00 0.00 0.00 0.00 0.00 0.00 0.00
0.00 0.00 0.00 0.00 0.00 0.00 0.00 0.00 0.00 0.00 0.00 0.00 0.00 0.00 0.00 0.00 0.00 0.00 0.00 0.00 0.00 0.00 0.00 0.00 0.00 0.00 0.00 0.00 0.00 0.00 0.00 0.00 0.00 0.00 0.00 0.00 0.00 0.00 0.00 0.00 0.00 0.00 0.00
0.00 0.00 0.00 0.00 0.00 0.00 0.00 0.00 0.00 0.00 0.00 0.00 0.00 0.00 0.00 0.00 0.00 0.00 0.00 0.00 0.00 0.00 0.00 0.00 0.00 0.00 0.00 0.00 0.00 0.00 0.00 0.00 0.00 0.00 0.00 0.00 0.00 0.00 0.01 0.01 0.02 0.02 0.01
0.00 0.00 0.00 0.00 0.00 0.00 0.00 0.00 0.00 0.00 0.00 0.00 0.00 0.00 0.00 0.00 0.00 0.00 0.00 0.00 0.00 0.00 0.00 0.00 0.00 0.00 0.00 0.00 0.00 0.00 0.00 0.00 0.00 0.00 0.00 0.00 0.00 0.00 0.01 0.04 0.07 0.08 0.06
0.00 0.00 0.00 0.00 0.00 0.00 0.00 0.00 0.00 0.00 0.00 0.00 0.00 0.00 0.00 0.00 0.00 0.00 0.00 0.00 0.00 0.00 0.00 0.00 0.00 0.00 0.00 0.00 0.00 0.00 0.00 0.00 0.00 0.00 0.00 0.00 0.00 0.00 0.01 0.04 0.11 0.12 0.09
0.00 0.00 0.00 0.00 0.00 0.00 0.00 0.00 0.00 0.00 0.00 0.00 0.00 0.00 0.00 0.00 0.00 0.00 0.00 0.00 0.00 0.00 0.00 0.00 0.00 0.00 0.00 0.00 0.00 0.00 0.00 0.00 0.00 0.00 0.00 0.00 0.00 0.00 0.00 0.03 0.09 0.12 0.10
0.00 0.00 0.00 0.00 0.00 0.00 0.00 0.00 0.00 0.00 0.00 0.00 0.00 0.00 0.00 0.00 0.00 0.00 0.00 0.00 0.00 0.00 0.00 0.00 0.00 0.00 0.01 0.01 0.01 0.01 0.00 0.00 0.00 0.00 0.00 0.00 0.00 0.00 0.00 0.02 0.07 0.11 0.12
0.00 0.00 0.00 0.00 0.00 0.00 0.00 0.00 0.00 0.00 0.00 0.00 0.00 0.00 0.00 0.00 0.00 0.00 0.00 0.00 0.00 0.01 0.01 0.01 0.01 0.01 0.01 0.01 0.01 0.01 0.01 0.01 0.01 0.01 0.02 0.01 0.00 0.00 0.00 0.01 0.04 0.09 0.11
0.00 0.00 0.00 0.00 0.00 0.00 0.00 0.00 0.00 0.00 0.00 0.00 0.00 0.00 0.00 0.01 0.01 0.00 0.00 0.00 0.00 0.00 0.01 0.01 0.01 0.01 0.01 0.01 0.01 0.02 0.02 0.03 0.03 0.02 0.02 0.01 0.01 0.01 0.01 0.01 0.03 0.07 0.10
0.00 0.00 0.00 0.00 0.00 0.00 0.00 0.00 0.00 0.00 0.00 0.00 0.01 0.01 0.01 0.01 0.01 0.00 0.00 0.00 0.00 0.01 0.01 0.01 0.02 0.02 0.03 0.03 0.05 0.05 0.04 0.03 0.04 0.02 0.03 0.02 0.02 0.02 0.03 0.03 0.03 0.05 0.08
0.00 0.00 0.00 0.00 0.00 0.00 0.00 0.00 0.00 0.00 0.01 0.00 0.00 0.01 0.01 0.01 0.01 0.00 0.00 0.00 0.00 0.00 0.01 0.02 0.04 0.04 0.07 0.07 0.07 0.07 0.04 0.04 0.05 0.04 0.04 0.02 0.03 0.05 0.08 0.07 0.05 0.06 0.08
0.00 0.00 0.00 0.00 0.00 0.00 0.00 0.00 0.00 0.00 0.00 0.00 0.00 0.01 0.01 0.01 0.01 0.00 0.00 0.01 0.01 0.01 0.02 0.03 0.05 0.06 0.07 0.09 0.10 0.09 0.07 0.08 0.07 0.07 0.07 0.03 0.04 0.06 0.09 0.09 0.09 0.10 0.10
0.00 0.01 0.01 0.00 0.00 0.00 0.01 0.01 0.01 0.01 0.00 0.00 0.00 0.01 0.00 0.01 0.01 0.01 0.01 0.02 0.02 0.02 0.04 0.05 0.05 0.07 0.11 0.11 0.10 0.10 0.10 0.11 0.11 0.11 0.08 0.05 0.05 0.05 0.08 0.10 0.09 0.10 0.10
0.00 0.00 0.01 0.01 0.01 0.01 0.01 0.01 0.02 0.02 0.02 0.02 0.01 0.01 0.01 0.01 0.01 0.03 0.03 0.04 0.04 0.05 0.08 0.10 0.08 0.11 0.13 0.14 0.11 0.12 0.11 0.13 0.13 0.11 0.09 0.09 0.06 0.05 0.07 0.09 0.10 0.10 0.10
0.00 0.01 0.01 0.02 0.02 0.02 0.02 0.03 0.03 0.04 0.03 0.02 0.02 0.03 0.04 0.04 0.05 0.07 0.07 0.07 0.08 0.11 0.15 0.14 0.13 0.14 0.12 0.13 0.13 0.15 0.13 0.13 0.11 0.11 0.10 0.09 0.07 0.04 0.03 0.05 0.08 0.09 0.09
0.00 0.01 0.01 0.02 0.03 0.04 0.04 0.03 0.03 0.04 0.03 0.03 0.05 0.07 0.10 0.11 0.13 0.13 0.11 0.11 0.15 0.19 0.19 0.17 0.15 0.16 0.17 0.18 0.16 0.15 0.14 0.12 0.08 0.09 0.09 0.08 0.09 0.05 0.04 0.04 0.05 0.06 0.07
0.00 0.01 0.01 0.01 0.02 0.03 0.03 0.03 0.03 0.03 0.04 0.06 0.06 0.07 0.11 0.14 0.15 0.15 0.12 0.12 0.15 0.18 0.18 0.16 0.19 0.21 0.22 0.22 0.21 0.16 0.13 0.10 0.08 0.07 0.06 0.07 0.08 0.06 0.04 0.03 0.02 0.03 0.04
0.00 0.00 0.01 0.01 0.02 0.03 0.02 0.02 0.02 0.03 0.05 0.06 0.07 0.07 0.10 0.11 0.13 0.14 0.11 0.09 0.15 0.17 0.14 0.15 0.18 0.23 0.24 0.25 0.23 0.15 0.10 0.07 0.07 0.06 0.05 0.04 0.04 0.03 0.03 0.04 0.04 0.02 0.02
0.01 0.01 0.01 0.02 0.03 0.03 0.04 0.04 0.03 0.03 0.04 0.04 0.05 0.05 0.06 0.07 0.09 0.11 0.11 0.13 0.16 0.16 0.14 0.19 0.23 0.23 0.21 0.27 0.25 0.16 0.11 0.08 0.07 0.05 0.05 0.04 0.03 0.03 0.03 0.03 0.03 0.04 0.03
0.02 0.01 0.00 0.01 0.02 0.03 0.03 0.02 0.02 0.03 0.03 0.04 0.04 0.03 0.04 0.04 0.06 0.07 0.09 0.09 0.12 0.13 0.14 0.17 0.20 0.20 0.17 0.25 0.27 0.24 0.16 0.12 0.08 0.06 0.04 0.04 0.03 0.03 0.02 0.02 0.03 0.04 0.03
0.00 0.00 0.00 0.01 0.02 0.01 0.01 0.01 0.02 0.03 0.02 0.02 0.02 0.02 0.02 0.02 0.03 0.04 0.04 0.05 0.06 0.09 0.09 0.11 0.15 0.18 0.17 0.19 0.24 0.29 0.23 0.15 0.14 0.09 0.07 0.04 0.03 0.03 0.02 0.03 0.02 0.03 0.04
0.00 0.00 0.00 0.00 0.00 0.01 0.01 0.02 0.03 0.02 0.02 0.02 0.01 0.01 0.00 0.00 0.00 0.01 0.01 0.01 0.02 0.04 0.05 0.06 0.10 0.13 0.17 0.16 0.18 0.19 0.21 0.24 0.22 0.14 0.08 0.06 0.05 0.04 0.03 0.03 0.03 0.04 0.05
0.00 0.00 0.00 0.00 0.00 0.00 0.01 0.01 0.02 0.01 0.01 0.00 0.00 0.00 0.00 0.00 0.00 0.00 0.00 0.00 0.01 0.02 0.03 0.03 0.04 0.07 0.09 0.11 0.13 0.13 0.13 0.15 0.14 0.12 0.08 0.06 0.06 0.05 0.04 0.04 0.04 0.05 0.06
0.00 0.00 0.00 0.00 0.00 0.00 0.01 0.01 0.01 0.01 0.01 0.00 0.00 0.00 0.00 0.00 0.00 0.00 0.00 0.00 0.01 0.01 0.01 0.01 0.02 0.03 0.05 0.06 0.07 0.09 0.09 0.09 0.08 0.08 0.08 0.08 0.08 0.08 0.06 0.04 0.04 0.05 0.06
MSLP
1010.03 1010.19 1010.55 1011.07 1011.67 1012.24 1012.71 1013.03 1013.21 1013.27 1013.29 1013.35 1013.50 1013.75 1014.11 1014.51 1014.90 1015.21 1015.39 1015.44 1015.39 1015.28 1015.17 1015.11 1015.14 1015.25 1015.41 1015.60 1015.76 1015.86 1015.91 1015.89 1015.86 1015.83 1015.84 1015.91 1016.03 1016.17 1016.33 1016.47 1016.58 1016.66 1016.72
1009.82 1010.09 1010.57 1011.19 1011.87 1012.50 1013.00 1013.33 1013.49 1013.53 1013.52 1013.55 1013.68 1013.92 1014.26 1014.66 1015.03 1015.32 1015.49 1015.51 1015.44 1015.32 1015.22 1015.18 1015.24 1015.39 1015.59 1015.80 1015.97 1016.08 1016.10 1016.06 1016.00 1015.96 1015.97 1016.04 1016.17 1016.34 1016.51 1016.67 1016.79 1016.87 1016.92
1009.64 1010.02 1010.59 1011.30 1012.04 1012.73 1013.26 1013.61 1013.78 1013.81 1013.79 1013.80 1013.90 1014.12 1014.44 1014.80 1015.14 1015.39 1015.52 1015.53 1015.45 1015.34 1015.27 1015.27 1015.38 1015.57 1015.80 1016.02 1016.18 1016.25 1016.23 1016.15 1016.04 1015.97 1015.96 1016.03 1016.17 1016.36 1016.56 1016.74 1016.87 1016.96 1017.01
1009.53 1009.99 1010.62 1011.39 1012.18 1012.90 1013.47 1013.84 1014.02 1014.06 1014.05 1014.05 1014.14 1014.34 1014.62 1014.93 1015.22 1015.43 1015.53 1015.52 1015.45 1015.38 1015.35 1015.41 1015.57 1015.80 1016.04 1016.25 1016.38 1016.39 1016.31 1016.16 1015.99 1015.88 1015.85 1015.91 1016.07 1016.28 1016.50 1016.70 1016.86 1016.96 1017.03
1009.51 1010.00 1010.67 1011.46 1012.27 1013.01 1013.59 1013.98 1014.18 1014.25 1014.26 1014.27 1014.36 1014.53 1014.78 1015.05 1015.29 1015.46 1015.53 1015.52 1015.47 1015.43 1015.46 1015.58 1015.78 1016.04 1016.29 1016.47 1016.55 1016.49 1016.33 1016.11 1015.88 1015.72 1015.67 1015.73 1015.89 1016.12 1016.37 1016.59 1016.77 1016.90 1016.99
1009.58 1010.07 1010.74 1011.51 1012.31 1013.03 1013.61 1014.02 1014.24 1014.34 1014.38 1014.42 1014.51 1014.68 1014.90 1015.13 1015.33 1015.46 1015.52 1015.51 1015.48 1015.48 1015.56 1015.72 1015.96 1016.24 1016.48 1016.63 1016.65 1016.52 1016.29 1016.00 1015.73 1015.53 1015.46 1015.52 1015.69 1015.94 1016.20 1016.45 1016.65 1016.80 1016.91
1009.71 1010.18 1010.81 1011.54 1012.29 1012.98 1013.55 1013.95 1014.19 1014.32 1014.39 1014.46 1014.57 1014.73 1014.94 1015.14 1015.31 1015.42 1015.46 1015.45 1015.44 1015.47 1015.59 1015.78 1016.05 1016.32 1016.55 1016.66 1016.63 1016.45 1016.17 1015.83 1015.53 1015.32 1015.24 1015.31 1015.49 1015.75 1016.03 1016.28 1016.49 1016.65 1016.78
1009.89 1010.31 1010.88 1011.55 1012.23 1012.87 1013.40 1013.79 1014.04 1014.19 1014.28 1014.38 1014.51 1014.68 1014.88 1015.07 1015.21 1015.29 1015.32 1015.30 1015.30 1015.35 1015.48 1015.69 1015.96 1016.22 1016.42 1016.50 1016.44 1016.23 1015.92 1015.58 1015.27 1015.07 1015.01 1015.09 1015.29 1015.55 1015.84 1016.09 1016.30 1016.46 1016.58
1010.08 1010.45 1010.95 1011.53 1012.15 1012.72 1013.19 1013.55 1013.80 1013.96 1014.08 1014.20 1014.34 1014.52 1014.70 1014.87 1015.00 1015.06 1015.06 1015.04 1015.03 1015.07 1015.20 1015.40 1015.65 1015.89 1016.07 1016.13 1016.06 1015.85 1015.55 1015.23 1014.95 1014.78 1014.75 1014.86 1015.07 1015.34 1015.62 1015.86 1016.05 1016.19 1016.31
1010.25 1010.58 1011.01 1011.52 1012.05 1012.55 1012.97 1013.29 1013.52 1013.68 1013.80 1013.93 1014.08 1014.25 1014.42 1014.57 1014.67 1014.71 1014.69 1014.64 1014.62 1014.64 1014.74 1014.92 1015.14 1015.36 1015.52 1015.58 1015.51 1015.33 1015.06 1014.79 1014.56 1014.43 1014.44 1014.57 1014.80 1015.07 1015.34 1015.56 1015.73 1015.85 1015.94
1010.39 1010.68 1011.05 1011.50 1011.96 1012.39 1012.75 1013.03 1013.23 1013.37 1013.48 1013.60 1013.74 1013.90 1014.05 1014.18 1014.25 1014.26 1014.22 1014.15 1014.09 1014.09 1014.16 1014.30 1014.50 1014.69 1014.84 1014.90 1014.85 1014.71 1014.49 1014.27 1014.10 1014.02 1014.07 1014.22 1014.45 1014.72 1014.97 1015.17 1015.32 1015.41 1015.48
1010.46 1010.74 1011.08 1011.47 1011.88 1012.25 1012.56 1012.80 1012.96 1013.07 1013.16 1013.26 1013.37 1013.50 1013.63 1013.72 1013.77 1013.75 1013.68 1013.59 1013.51 1013.48 1013.52 1013.63 1013.80 1013.98 1014.12 1014.19 1014.17 1014.06 1013.90 1013.73 1013.60 1013.56 1013.63 1013.79 1014.02 1014.27 1014.51 1014.69 1014.82 1014.89 1014.94
1010.48 1010.75 1011.08 1011.44 1011.80 1012.13 1012.41 1012.60 1012.73 1012.81 1012.86 1012.93 1013.00 1013.09 1013.18 1013.25 1013.27 1013.23 1013.14 1013.04 1012.94 1012.89 1012.91 1013.00 1013.14 1013.30 1013.44 1013.52 1013.53 1013.46 1013.34 1013.20 1013.10 1013.08 1013.14 1013.29 1013.50 1013.74 1013.95 1014.13 1014.25 1014.31 1014.36
1010.42 1010.70 1011.03 1011.38 1011.73 1012.03 1012.28 1012.44 1012.54 1012.58 1012.60 1012.62 1012.65 1012.70 1012.75 1012.79 1012.78 1012.73 1012.64 1012.53 1012.43 1012.37 1012.37 1012.45 1012.58 1012.73 1012.87 1012.97 1012.99 1012.94 1012.84 1012.72 1012.62 1012.59 1012.63 1012.75 1012.93 1013.14 1013.34 1013.50 1013.62 1013.70 1013.76
1010.29 1010.59 1010.93 1011.29 1011.63 1011.93 1012.16 1012.31 1012.38 1012.39 1012.37 1012.35 1012.34 1012.34 1012.36 1012.36 1012.34 1012.29 1012.20 1012.09 1011.99 1011.94 1011.94 1012.01 1012.13 1012.28 1012.42 1012.52 1012.55 1012.51 1012.41 1012.29 1012.18 1012.11 1012.12 1012.19 1012.33 1012.50 1012.68 1012.84 1012.97 1013.07 1013.16
1010.09 1010.42 1010.77 1011.14 1011.50 1011.81 1012.04 1012.18 1012.23 1012.22 1012.17 1012.11 1012.05 1012.02 1012.00 1011.99 1011.96 1011.90 1011.82 1011.72 1011.64 1011.59 1011.59 1011.65 1011.77 1011.91 1012.04 1012.14 1012.17 1012.14 1012.04 1011.90 1011.76 1011.66 1011.61 1011.63 1011.72 1011.85 1012.01 1012.17 1012.31 1012.44 1012.55
1009.86 1010.20 1010.57 1010.97 1011.34 1011.66 1011.90 1012.04 1012.09 1012.06 1011.99 1011.89 1011.81 1011.74 1011.70 1011.66 1011.63 1011.57 1011.49 1011.41 1011.32 1011.27 1011.27 1011.32 1011.42 1011.54 1011.67 1011.76 1011.80 1011.76 1011.66 1011.51 1011.35 1011.20 1011.11 1011.08 1011.12 1011.21 1011.34 1011.50 1011.64 1011.79 1011.92
1009.62 1009.97 1010.36 1010.76 1011.15 1011.49 1011.74 1011.89 1011.94 1011.91 1011.82 1011.71 1011.60 1011.51 1011.45 1011.40 1011.35 1011.29 1011.21 1011.12 1011.03 1010.96 1010.93 1010.96 1011.03 1011.13 1011.24 1011.32 1011.36 1011.33 1011.23 1011.09 1010.91 1010.75 1010.62 1010.55 1010.54 1010.60 1010.70 1010.82 1010.96 1011.10 1011.24
1009.41 1009.76 1010.16 1010.57 1010.97 1011.32 1011.58 1011.74 1011.79 1011.76 1011.67 1011.55 1011.43 1011.33 1011.26 1011.20 1011.14 1011.07 1010.98 1010.87 1010.75 1010.64 1010.57 1010.54 1010.57 1010.63 1010.71 1010.79 1010.83 1010.81 1010.73 1010.60 1010.44 1010.28 1010.14 1010.04 1010.00 1010.01 1010.07 1010.16 1010.27 1010.38 1010.50
1009.29 1009.62 1010.00 1010.41 1010.80 1011.15 1011.42 1011.59 1011.65 1011.63 1011.55 1011.43 1011.32 1011.22 1011.14 1011.08 1011.01 1010.92 1010.80 1010.66 1010.49 1010.33 1010.19 1010.10 1010.06 1010.07 1010.11 1010.16 1010.20 1010.20 1010.15 1010.06 1009.93 1009.79 1009.66 1009.55 1009.49 1009.47 1009.48 1009.52 1009.58 1009.64 1009.70
1009.26 1009.57 1009.93 1010.31 1010.68 1011.01 1011.28 1011.45 1011.53 1011.52 1011.46 1011.36 1011.27 1011.18 1011.10 1011.04 1010.96 1010.85 1010.71 1010.51 1010.29 1010.06 1009.85 1009.67 1009.55 1009.49 1009.48 1009.50 1009.53 1009.54 1009.52 1009.47 1009.39 1009.29 1009.18 1009.09 1009.02 1008.97 1008.94 1008.92 1008.91 1008.90 1008.90
1009.36 1009.62 1009.93 1010.27 1010.60 1010.91 1011.16 1011.33 1011.43 1011.44 1011.41 1011.34 1011.27 1011.21 1011.15 1011.08 1011.00 1010.88 1010.70 1010.46 1010.18 1009.88 1009.58 1009.32 1009.11 1008.97 1008.89 1008.86 1008.87 1008.88 1008.88 1008.87 1008.83 1008.78 1008.71 1008.65 1008.59 1008.52 1008.46 1008.39 1008.31 1008.22 1008.14
1009.56 1009.76 1010.01 1010.29 1010.58 1010.84 1011.07 1011.24 1011.35 1011.39 1011.39 1011.36 1011.32 1011.29 1011.24 1011.19 1011.11 1010.97 1010.77 1010.50 1010.18 1009.81 1009.44 1009.10 1008.80 1008.57 1008.41 1008.32 1008.27 1008.26 1008.26 1008.26 1008.26 1008.25 1008.24 1008.21 1008.17 1008.12 1008.05 1007.94 1007.81 1007.66 1007.50
1009.84 1009.98 1010.16 1010.36 1010.58 1010.81 1011.00 1011.17 1011.28 1011.35 1011.38 1011.39 1011.39 1011.37 1011.35 1011.31 1011.23 1011.09 1010.88 1010.59 1010.24 1009.84 1009.42 1009.01 1008.63 1008.31 1008.07 1007.88 1007.76 1007.69 1007.66 1007.65 1007.66 1007.69 1007.72 1007.75 1007.76 1007.75 1007.69 1007.60 1007.45 1007.27 1007.07
1010.19 1010.25 1010.34 1010.46 1010.61 1010.78 1010.95 1011.10 1011.22 1011.31 1011.37 1011.40 1011.42 1011.42 1011.41 1011.37 1011.29 1011.15 1010.95 1010.66 1010.31 1009.90 1009.46 1009.00 1008.57 1008.17 1007.82 1007.54 1007.32 1007.16 1007.05 1007.00 1007.00 1007.05 1007.12 1007.21 1007.30 1007.37 1007.38 1007.34 1007.23 1007.06 1006.86
1010.58 1010.55 1010.55 1010.59 1010.67 1010.78 1010.91 1011.04 1011.16 1011.25 1011.32 1011.36 1011.38 1011.38 1011.35 1011.31 1011.22 1011.09 1010.90 1010.63 1010.30 1009.91 1009.47 1009.00 1008.53 1008.06 1007.62 1007.22 1006.88 1006.61 1006.40 1006.28 1006.24 1006.29 1006.41 1006.57 1006.76 1006.94 1007.08 1007.15 1007.13 1007.04 1006.88
Thickness
5847 5841 5825 5821 5817 5814 5811 5808 5805 5801 5797 5794 5790 5788 5785 5783 5780 5778 5776 5774 5772 5770 5769 5767 5766 5764 5763 5761 5759 5758 5756 5755 5754 5752 5751 5750 5749 5748 5747 5746 5747 5748 5744
5851 5840 5825 5821 5817 5813 5810 5807 5803 5800 5796 5793 5790 5787 5785 5782 5780 5778 5776 5774 5772 5770 5768 5767 5765 5763 5762 5760 5758 5757 5755 5754 5753 5752 5751 5750 5748 5747 5746 5746 5746 5748 5743
5849 5838 5825 5820 5816 5812 5809 5805 5802 5798 5795 5792 5789 5786 5784 5781 5779 5777 5775 5773 5771 5770 5768 5766 5764 5763 5761 5759 5758 5756 5754 5753 5752 5751 5752 5756 5751 5747 5746 5745 5744 5743 5742
5846 5836 5827 5818 5814 5811 5807 5804 5800 5797 5794 5790 5788 5785 5782 5780 5778 5776 5774 5772 5771 5769 5767 5765 5763 5761 5760 5758 5757 5755 5754 5753 5752 5752 5756 5759 5755 5748 5746 5744 5743 5742 5741
5842 5835 5825 5817 5813 5809 5805 5802 5799 5796 5792 5789 5786 5784 5781 5779 5777 5775 5774 5772 5770 5768 5766 5764 5762 5760 5759 5757 5756 5755 5753 5752 5752 5753 5758 5757 5756 5749 5746 5745 5743 5742 5741
5839 5834 5824 5815 5811 5807 5803 5800 5797 5794 5791 5788 5785 5783 5780 5778 5776 5775 5773 5771 5769 5767 5765 5763 5762 5760 5758 5756 5755 5754 5753 5752 5752 5759 5759 5757 5757 5750 5747 5745 5744 5742 5741
5839 5833 5823 5814 5809 5805 5802 5798 5795 5792 5789 5787 5784 5781 5779 5777 5775 5774 5772 5770 5768 5767 5765 5763 5761 5759 5757 5756 5755 5754 5753 5752 5754 5762 5760 5758 5757 5751 5748 5746 5745 5744 5742
5838 5832 5822 5811 5807 5803 5800 5797 5793 5791 5788 5785 5783 5780 5778 5777 5775 5773 5771 5770 5768 5766 5765 5763 5761 5760 5758 5756 5755 5754 5753 5752 5757 5761 5761 5760 5757 5752 5749 5747 5746 5745 5744
5837 5831 5822 5813 5807 5802 5798 5795 5792 5789 5786 5784 5781 5779 5777 5776 5774 5772 5771 5769 5768 5766 5765 5763 5762 5760 5759 5757 5756 5755 5754 5753 5755 5762 5764 5762 5759 5753 5750 5749 5748 5747 5745
5832 5828 5823 5816 5810 5804 5799 5794 5790 5787 5784 5782 5780 5778 5776 5774 5773 5772 5771 5769 5767 5766 5765 5763 5762 5761 5760 5759 5757 5756 5755 5754 5758 5764 5765 5764 5759 5754 5751 5750 5749 5748 5747
5826 5824 5821 5817 5810 5805 5802 5797 5790 5786 5783 5780 5779 5776 5774 5776 5778 5776 5773 5771 5768 5766 5764 5763 5762 5761 5760 5760 5759 5758 5756 5759 5765 5766 5766 5764 5759 5755 5752 5751 5750 5749 5748
5820 5819 5818 5815 5809 5804 5801 5797 5792 5789 5786 5782 5782 5779 5777 5777 5776 5776 5774 5769 5767 5765 5764 5763 5762 5761 5760 5764 5764 5760 5762 5764 5766 5767 5767 5763 5758 5755 5753 5752 5751 5750 5749
5819 5817 5814 5810 5805 5802 5798 5795 5792 5790 5787 5784 5781 5778 5775 5775 5774 5773 5773 5771 5768 5765 5765 5766 5764 5764 5765 5765 5765 5764 5765 5766 5766 5767 5767 5762 5758 5756 5754 5753 5752 5751 5750
5818 5815 5813 5807 5800 5796 5794 5792 5788 5786 5784 5782 5780 5776 5775 5773 5771 5771 5769 5769 5768 5767 5766 5765 5765 5765 5764 5764 5763 5763 5764 5763 5763 5763 5763 5760 5757 5756 5754 5753 5752 5751 5750
5814 5811 5809 5803 5797 5792 5787 5784 5783 5782 5781 5778 5774 5772 5769 5768 5767 5767 5765 5763 5763 5763 5763 5761 5762 5762 5761 5761 5761 5761 5761 5760 5760 5760 5760 5758 5756 5755 5754 5753 5752 5751 5750
5812 5809 5806 5799 5794 5788 5783 5779 5778 5776 5774 5772 5770 5768 5765 5763 5763 5761 5760 5759 5759 5757 5757 5757 5757 5756 5756 5756 5757 5757 5756 5757 5756 5755 5756 5757 5755 5754 5753 5752 5752 5751 5750
5811 5808 5801 5795 5790 5784 5780 5776 5774 5773 5771 5769 5766 5763 5760 5758 5757 5755 5755 5755 5754 5752 5750 5749 5749 5750 5750 5751 5751 5752 5752 5752 5752 5752 5752 5753 5754 5754 5753 5752 5751 5750 5749
5808 5802 5797 5793 5787 5781 5776 5772 5771 5769 5767 5765 5762 5759 5756 5754 5752 5751 5751 5752 5750 5748 5746 5745 5744 5744 5745 5743 5744 5746 5747 5748 5748 5748 5748 5749 5750 5752 5754 5752 5751 5749 5749
5803 5797 5791 5787 5783 5778 5772 5768 5765 5762 5760 5759 5757 5755 5753 5750 5748 5747 5747 5747 5745 5744 5743 5741 5742 5739 5738 5737 5738 5740 5741 5742 5744 5745 5745 5746 5746 5747 5749 5751 5750 5748 5748
5798 5791 5785 5780 5776 5772 5768 5763 5760 5757 5756 5755 5753 5750 5747 5745 5743 5741 5742 5742 5740 5738 5737 5736 5734 5734 5733 5733 5733 5735 5736 5738 5739 5740 5740 5743 5745 5746 5747 5748 5748 5749 5747
5789 5783 5777 5773 5769 5764 5761 5757 5754 5752 5751 5750 5749 5745 5741 5739 5737 5735 5736 5736 5734 5732 5732 5731 5730 5729 5728 5728 5724 5725 5730 5734 5735 5736 5737 5739 5742 5744 5744 5744 5744 5746 5747
5779 5774 5770 5766 5762 5758 5755 5752 5749 5746 5746 5745 5742 5738 5735 5733 5731 5732 5730 5729 5729 5726 5725 5725 5723 5722 5724 5724 5718 5715 5716 5723 5730 5734 5734 5735 5737 5740 5741 5742 5742 5741 5741
5771 5768 5765 5760 5756 5753 5750 5747 5744 5740 5739 5738 5735 5733 5730 5728 5726 5724 5723 5722 5721 5720 5721 5719 5718 5715 5715 5718 5716 5711 5707 5712 5721 5726 5729 5730 5731 5732 5736 5738 5739 5739 5738
5764 5762 5757 5753 5749 5746 5743 5741 5737 5733 5731 5730 5728 5727 5724 5722 5720 5718 5716 5714 5713 5714 5713 5713 5715 5711 5709 5710 5712 5711 5710 5711 5707 5711 5719 5725 5727 5727 5729 5733 5736 5736 5735
5755 5753 5750 5746 5742 5739 5736 5733 5730 5729 5728 5727 5724 5720 5717 5717 5714 5712 5710 5708 5706 5706 5706 5704 5704 5703 5704 5704 5705 5706 5706 5706 5707 5704 5707 5715 5719 5723 5725 5726 5728 5730 5732
5746 5744 5742 5738 5734 5732 5729 5727 5724 5722 5720 5718 5715 5714 5712 5712 5710 5708 5705 5702 5700 5700 5698 5697 5697 5697 5696 5697 5698 5699 5700 5701 5704 5704 5704 5707 5709 5714 5718 5720 5721 5723 5724